Weather in Bulay

Russia / Udmurt Republic     56°40′55″N   52°18′58″E
temp.,
°C
wind,
m/s
gust,
m/s
humid.,
%
clouds,
%
prec.,
mm/h
press.,
hPa
HPBL,
m
18 april, sun
sun1801:00+3n22785 0.0 102421
04:00+2n22825 0.0 102425
07:00+4n25780 0.0 1024148
10:00+8nne56595 0.0 1024955
13:00+6ne776780 0.0 1025933
16:00+7ne77378 0.0 10261540
19:00+4ne610460 0.0 1028878
22:00+2ne612615 0.0 1029475
19 april, mon
mon1901:000ene6125553 0.0 1031512
04:00−1ene5125432 0.0 1032493
07:000ene611465 0.0 1033832
10:00+3e810290 0.0 10331339
13:00+5e79260 0.0 10331622
16:00+6e68270 0.0 10331710
19:00+4e48390 0.0 1033260
22:000ene310520 0.0 1035178
20 april, tue
tue2001:00−1e39540 0.0 1036196
04:00−2e38560 0.0 1036160
07:000ese47470 0.0 1037265
10:00+5ese45330 0.0 10361022
13:00+8se44300 0.0 10361345
16:00+8ese34300 0.0 10341255
19:00+6se22450 0.0 103324
22:00+3ese22490 0.0 103417
21 april, wed
wed2101:00+1ese33540 0.0 103424
04:00+1se33550 0.0 103430
07:00+3ese38535 0.0 1034205
10:00+8se57378 0.0 1033859
13:00+11se683387 0.0 10311186
16:00+12sse6931100 0.0 10301450
19:00+9sse494697 0.0 1030185
22:00+5sse41155100 0.0 1030222
22 april, thu
thu2201:00+4sse4105796 0.0 1030177
04:00+4sse41058100 0.0 1030236
07:00+6sse41158100 0.0 1030469
10:00+7s61157100 0.0 10311013
13:00+6s71185100 0.1 1032942
16:00+5s61384100 0.8 1033868
19:00+6sw51083100 0.3 1032519
22:00+4sse239288 0.3 103270